K3GM Weather Reports


Display with metric or nautical units.
time (UTC)temp
F
wind
direction
speed
MPH
gust
MPH
rain 1hr
in
rain 24hr
in
rain mn
in
humidity
%
barometer
mb
20260904091541 75 0 0.0 0.0 0.00 0.14 0.00 90 1012.0
20260904090038 75 0 0.0 0.0 0.00 0.14 0.00 93 1012.1
20260904084545 75 0 0.0 0.0 0.00 0.55 0.00 95 1012.1
20260904083042 75 0 0.0 0.0 0.00 0.55 0.00 95 1011.8
20260904081544 75 0 0.0 0.0 0.00 0.55 0.00 97 1012.0
20260904080045 75 0 0.0 0.0 0.00 0.55 0.00 97 1012.1
20260904074546 75 0 0.0 0.0 0.00 0.57 0.00 96 1012.1
20260904073039 75 0 0.0 0.0 0.00 0.57 0.00 95 1012.1
20260904071552 75 0 0.0 0.0 0.00 0.57 0.00 95 1011.8
20260904070039 75 0 0.0 0.0 0.00 0.57 0.00 94 1011.5
20260904064543 75 0 0.0 0.0 0.00 1.10 0.00 94 1011.6
20260904063042 75 0 0.0 0.0 0.00 1.10 0.00 94 1011.4
20260904061541 75 0 0.0 0.0 0.00 1.10 0.00 92 1011.4
20260904060040 75 0 0.0 0.0 0.00 1.10 0.00 92 1011.7
20260904054543 76 0 0.0 0.0 0.00 1.11 0.00 91 1011.7
20260904053044 76 0 0.0 0.0 0.00 1.11 0.00 90 1012.2
20260904051540 76 0 0.0 0.0 0.00 1.11 0.00 89 1012.3
20260904050045 77 0 0.0 0.0 0.00 1.11 0.00 88 1012.1
20260904044539 78 0 0.0 0.0 0.00 1.11 0.00 89 1013.0
20260904043043 77 0 0.0 0.0 0.00 1.11 0.00 92 1013.1
20260904041542 77 0 0.0 0.0 0.00 1.11 0.00 92 1012.7
20260904040046 77 0 0.0 0.0 0.00 1.11 0.00 91 1012.6
20260904034543 77 0 0.0 0.0 0.00 1.11 1.11 91 1012.8
20260904033043 77 0 0.0 0.0 0.00 1.11 1.11 91 1013.2
20260904031539 77 0 0.0 0.0 0.00 1.11 1.11 91 1013.4
20260904030041 78 0 0.0 0.0 0.00 1.11 1.11 90 1013.3
20260904024547 78 0 0.0 0.0 0.00 1.11 1.11 89 1013.3
20260904023044 78 0 0.0 0.0 0.00 1.11 1.11 88 1013.3
20260904021550 78 0 0.0 0.0 0.00 1.11 1.11 88 1013.5
20260904020041 79 0 0.0 0.0 0.00 1.11 1.11 88 1013.8
20260904014543 79 0 0.0 0.0 0.00 1.11 1.11 87 1013.9
20260904013042 79 0 0.0 0.0 0.00 1.11 1.11 86 1014.1
20260904011551 79 0 0.0 0.0 0.00 1.11 1.11 86 1013.8
20260904010039 80 0 0.0 0.0 0.00 1.11 1.11 86 1014.1
20260904004540 80 0 0.0 0.0 0.00 1.11 1.11 87 1013.9
20260904003042 80 0 0.0 0.0 0.00 1.11 1.11 87 1013.8
20260904001542 80 0 0.0 0.0 0.00 1.11 1.11 86 1013.5
20260904000041 81 0 0.0 0.0 0.00 1.11 1.11 85 1013.6
20260903234540 81 0 0.0 0.0 0.00 1.11 1.11 85 1013.7
20260903233040 81 0 0.0 0.0 0.00 1.11 1.11 84 1013.4
20260903231540 82 0 0.0 0.0 0.00 1.11 1.11 82 1013.4
20260903230040 83 0 0.0 0.0 0.00 1.11 1.11 81 1013.3
20260903224542 83 0 0.0 0.0 0.00 1.11 1.11 80 1013.0
20260903223049 84 0 0.0 0.0 0.00 1.11 1.11 79 1013.2
20260903221538 84 0 0.0 0.0 0.00 1.11 1.11 80 1012.9
20260903220058 84 0 0.0 0.0 0.00 1.11 1.11 78 1012.9
20260903214541 84 0 0.0 0.0 0.00 1.11 1.11 78 1012.7
20260903213045 85 0 0.0 0.0 0.00 1.11 1.11 76 1012.7
20260903211544 85 0 0.0 0.0 0.00 1.11 1.11 65 1012.6
20260903210052 86 0 0.0 0.0 0.00 1.11 1.11 65 1012.7
20260903204540 86 0 0.0 0.0 0.00 1.11 1.11 65 1012.7
20260903203039 86 0 0.0 0.0 0.00 1.11 1.11 72 1012.8
20260903201538 86 0 0.0 0.0 0.00 1.11 1.11 73 1012.9
20260903200043 86 0 0.0 0.0 0.00 1.11 1.11 66 1013.1
20260903194548 87 0 0.0 0.0 0.00 1.12 1.11 71 1013.1
20260903193051 87 0 0.0 0.0 0.00 1.12 1.11 71 1013.4
20260903191545 87 0 0.0 0.0 0.00 1.12 1.11 71 1013.7
20260903190050 87 0 0.0 0.0 0.00 1.12 1.11 66 1013.8
20260903184542 86 0 0.0 0.0 0.00 1.13 1.11 74 1014.0
20260903183046 86 0 0.0 0.0 0.00 1.13 1.11 67 1014.0
20260903181544 87 0 0.0 0.0 0.00 1.13 1.11 67 1014.2
20260903180044 86 0 0.0 0.0 0.00 1.13 1.11 75 1014.2
20260903174541 85 0 0.0 0.0 0.00 1.13 1.11 69 1014.4
20260903173045 86 0 0.0 0.0 0.00 1.13 1.11 67 1014.7
20260903171543 85 0 0.0 0.0 0.00 1.13 1.11 74 1014.9
20260903170043 84 0 0.0 0.0 0.00 1.13 1.11 74 1015.0
20260903164540 83 0 0.0 0.0 0.00 1.13 1.11 72 1015.1
20260903163044 82 0 0.0 0.0 0.00 1.13 1.11 72 1015.8
20260903161545 83 0 0.0 0.0 0.00 1.13 1.11 81 1015.8
20260903160048 81 0 0.0 0.0 0.00 1.13 1.11 76 1016.2
20260903154543 81 0 0.0 0.0 0.00 1.13 1.11 77 1016.3
20260903153043 80 0 0.0 0.0 0.00 1.13 1.11 84 1015.8
20260903151543 79 0 0.0 0.0 0.00 1.13 1.11 90 1016.2
20260903150049 78 0 0.0 0.0 0.00 1.13 1.11 94 1016.2
20260903144542 77 0 0.0 0.0 0.00 1.13 1.11 90 1016.2
20260903143046 76 0 0.0 0.0 0.00 1.13 1.11 100 1016.1
20260903141542 75 0 0.0 0.0 0.00 1.13 1.11 100 1016.2
20260903140040 75 0 0.0 0.0 0.00 1.13 1.11 100 1016.1
20260903134548 75 0 0.0 0.0 0.00 1.13 1.11 100 1015.6
20260903133040 74 0 0.0 0.0 0.00 1.13 1.11 100 1015.4
20260903131540 73 0 0.0 0.0 0.00 1.13 1.11 100 1015.7
20260903130041 73 0 0.0 0.0 0.00 1.13 1.11 100 1015.9
20260903124539 72 0 0.0 0.0 0.00 1.13 1.11 100 1016.1
20260903123038 72 0 0.0 0.0 0.00 1.13 1.11 100 1015.7
20260903121537 71 0 0.0 0.0 0.00 1.13 1.11 100 1015.4
20260903120042 71 0 0.0 0.0 0.00 1.13 1.11 100 1015.5
20260903114543 72 0 0.0 0.0 0.00 1.13 1.11 100 1016.4
20260903113042 71 0 0.0 0.0 0.00 1.13 1.11 100 1016.5
20260903111541 71 0 0.0 0.0 0.01 1.13 1.11 100 1016.8
20260903110042 71 0 0.0 0.0 0.01 1.13 1.11 100 1017.1
20260903104549 71 0 0.0 0.0 0.03 1.13 1.11 100 1016.4
20260903103044 70 0 0.0 0.0 0.08 1.13 1.11 100 1016.7
20260903101542 71 0 0.0 0.0 0.10 1.12 1.10 100 1016.1
20260903100043 71 0 0.0 0.0 0.12 1.12 1.10 100 1016.2
20260903094547 71 0 0.0 0.0 0.26 1.10 1.08 100 1016.9
20260903093052 70 0 0.0 0.0 0.36 1.04 1.03 100 1017.4